User: anonymous   Login
Location: Unspecified
(0.0000°N, 0.0000°E)
Time: 08:37:13
(UTC+00:00)
Language:

S-NET D - Orbit

View from above orbital plane
View from above orbital plane
View from above satellite
View from above satellite

Ground track
Ground track

The orbit data is extracted from the following two-line orbital elements,

1 43186U 18014G   21025.18208516 -.00000256  00000-0 -17197-4 0  9991
2 43186  97.6868 295.2782 0010248 194.8688 165.2234 14.96956321162864
Epoch (UTC): 25 January 2021 04:22:12
Eccentricity: 0.0010248
inclination: 97.6868°
perigee height: 569 km
apogee height: 583 km
right ascension of ascending node: 295.2782°
argument of perigee: 194.8688°
revolutions per day: 14.96956321
mean anomaly at epoch: 165.2234°
orbit number at epoch: 16286

The dashed part of the orbit path shows where the satellite is in the earth's shadow,  

DLR